Molokai, HI

11:54 PM HST on July 21, 2017 (GMT -1000)
Molokai

Weather History for PHMK - July, 2013

Change the Weather History Date:

Wednesday, July 17, 2013

  Actual Average Record
Temperature  
Mean Temperature 78 °F -  
Max Temperature 84 °F 84 °F 88 °F (2015)
Min Temperature 73 °F 70 °F 67 °F (1989)
Cooling Degree Days 14    
Growing Degree Days 28 (Base 50)    
Moisture  
Dew Point 65 °F    
Average Humidity 66    
Maximum Humidity 82    
Minimum Humidity 50    
Precipitation  
Precipitation 0.00 in - - ()
Sea Level Pressure  
Sea Level Pressure 29.99 in    
Wind  
Wind Speed 10 mph (NE)    
Max Wind Speed 25 mph    
Max Gust Speed 31 mph    
Visibility 10 miles    
Events      
Averages and records for this station are not official NWS values.
T = Trace of Precipitation, MM = Missing Value Source: NWS Daily Summary

Daily Weather History Graph

Daily Weather History Graph

Search for Another Location

Airport or City:

Trip Planner

Search our weather history database for the weather conditions in past years. The results will help you decide how hot, cold, wet, or windy it might be!

Date:

Astronomy

Jul. 17, 2013 Rise Set
Actual Time 5:56 AM HST 7:12 PM HST
Civil Twilight 5:32 AM HST 7:36 PM HST
Nautical Twilight 5:03 AM HST 8:05 PM HST
Astronomical Twilight 4:33 AM HST 8:35 PM HST
Moon 2:22 PM HST (7/17) 12:59 AM HST (7/17)
Length of Visible Light 14h 04m
Length of Day
13h 16m
Waxing Gibbous, 69% of the Moon is Illuminated
Jul 17
Waxing Gibbous
Jul 22
Full
Jul 29
Last Quarter
Aug 6
New
Aug 14
First Quarter

Hourly Weather History & Observations

Time (HST) Temp. Heat Index Dew Point Humidity Pressure Visibility Wind Dir Wind Speed Gust Speed Precip Events Conditions
12:54 AM 73.0 °F - 64.0 °F 73% 29.99 in 10.0 mi NE 9.2 mph - N/A   Clear
1:54 AM 73.0 °F - 66.9 °F 81% 29.98 in 10.0 mi NE 9.2 mph - N/A   Clear
2:54 AM 73.0 °F - 66.0 °F 79% 29.97 in 10.0 mi NE 5.8 mph - N/A   Clear
3:54 AM 73.0 °F - 64.0 °F 73% 29.96 in 10.0 mi NNE 3.5 mph - N/A   Clear
4:54 AM 73.0 °F - 62.1 °F 68% 29.96 in 10.0 mi NNE 6.9 mph - N/A   Clear
5:54 AM 73.0 °F - 61.0 °F 66% 29.98 in 10.0 mi NE 5.8 mph - N/A   Clear
6:54 AM 75.0 °F - 61.0 °F 62% 29.99 in 10.0 mi NNE 5.8 mph - N/A   Clear
7:54 AM 79.0 °F - 62.1 °F 56% 30.00 in 10.0 mi NE 5.8 mph - N/A   Clear
8:54 AM 80.1 °F 80.9 °F 60.1 °F 50% 30.01 in 10.0 mi Variable 4.6 mph - N/A   Clear
9:54 AM 82.0 °F 84.1 °F 66.0 °F 58% 30.01 in 10.0 mi NNE 11.5 mph 19.6 mph N/A   Partly Cloudy
10:54 AM 84.0 °F 86.5 °F 66.9 °F 56% 30.00 in 10.0 mi NE 13.8 mph 20.7 mph N/A   Partly Cloudy
11:54 AM 84.0 °F 86.3 °F 66.0 °F 55% 29.99 in 10.0 mi NE 17.3 mph 24.2 mph N/A   Partly Cloudy
12:54 PM 84.0 °F 86.5 °F 66.9 °F 56% 29.98 in 10.0 mi NNE 12.7 mph 26.5 mph N/A   Scattered Clouds
1:54 PM 84.0 °F 86.3 °F 66.0 °F 55% 29.97 in 10.0 mi NE 18.4 mph 25.3 mph N/A   Partly Cloudy
2:54 PM 82.9 °F 85.0 °F 66.0 °F 56% 29.96 in 10.0 mi ENE 25.3 mph 31.1 mph N/A   Scattered Clouds
3:54 PM 82.0 °F 83.8 °F 64.9 °F 56% 29.96 in 10.0 mi NE 16.1 mph 27.6 mph N/A   Scattered Clouds
4:54 PM 81.0 °F 82.7 °F 64.9 °F 58% 29.96 in 10.0 mi NE 15.0 mph 23.0 mph N/A   Scattered Clouds
5:54 PM 78.1 °F - 66.9 °F 68% 29.96 in 10.0 mi NE 13.8 mph 25.3 mph N/A   Partly Cloudy
6:54 PM 75.0 °F - 66.9 °F 76% 29.98 in 10.0 mi NE 11.5 mph 25.3 mph N/A   Clear
7:54 PM 73.9 °F - 68.0 °F 82% 29.99 in 10.0 mi NE 13.8 mph 24.2 mph N/A   Clear
8:54 PM 73.9 °F - 66.0 °F 76% 30.02 in 10.0 mi ENE 10.4 mph 18.4 mph N/A   Clear
9:54 PM 73.9 °F - 64.9 °F 73% 30.03 in 10.0 mi NE 9.2 mph 16.1 mph N/A   Clear
10:54 PM 73.0 °F - 64.9 °F 76% 30.04 in 10.0 mi ENE 15.0 mph 18.4 mph N/A   Clear
11:54 PM 73.0 °F - 64.0 °F 73% 30.03 in 10.0 mi NNE 9.2 mph - N/A   Partly Cloudy